Showing default

COSMOS 2227, 22284

Orbit data source: Space-Track

COSMOS 2227, 22284 is a payload satellite owned by GRU (CIS) in LEO that was launched on Fri, 25 Dec 1992 UTC via a ZENIT-2 launch vehicle from the Tyuratam Missile And Space Complex (TTMTR). Payload-class satellites include a variety of spacecraft equipped with specific instruments for various scientific and technological missions. These include communications satellites like Starlink; space stations such as the ISS; scientific satellites like the Hubble; Earth observation satellites from companies like Planet Labs, Umbra, and HawkEye 360; GPS; miniature CubeSats for education and research; and military/defense satellites.

Loading next visibility...
Identifier
22284, 1992-093A
Orbit
LEO
Country
Flag of CISCIS
Related business
Manufacturer
Yuzhnoe
Mission
Defense Sigint
Bus & Motor
TSELINA-2, Unknown motor
Mass
3,250 kg wet, 3,250 kg dry
Launch date (UTC)
1992-12-25 (33 years ago)
Launch vehicle
ZENIT-2
Launch site
Tyuratam Missile And Space Complex (TTMTR)
Object type
Payload
Rocket body
Debris
Shape & HBR
Unknown shape, 9.5 m
Radar Cross Section
Large (>1 m²)

Expand to show TLE details & history
Last TLE update: 1 day ago

TLE from 1 day ago
0 COSMOS 2227
1 22284U 92093A   25241.99571565  .00000345  00000-0  20740-3 0  9990
2 22284  70.9782  74.0243 0019915 318.8648  41.0972 14.13719082685677
Epoch: 2025-08-29T23:53Z
TLE epoch observation values (Epoch: 2025-08-29T23:53:49.832Z)
Latitude
0.00005°
Longitude
97.13032°
Altitude
838.238 km
Speed
7.44 km/s
True Right ascension
04h 56m 05s
True Declination
0° 00' 00"
Sunlit
Object was in daylight at epoch
Visualization orbit readout
Latitude
Unknown
Longitude
Unknown
Altitude
Unknown
Speed
Unknown
Apparent Right ascension
Unknown
Apparent Declination
Unknown
Sunlit
N/A
Visualization observer readout
Local Sidereal Time
16:00:56
Azimuth
Unknown
Elevation
Unknown
Doppler factor
Unknown
Orbital elements
Apogee altitude
858.985 km
Perigee altitude
830.217 km
Semi-major axis
7,222.738 km
Eccentricity
0.00199
Inclination
70.9782°
RAAN
74.0243°
Arg. of periapsis
318.8648°
True anomaly
41.24749°
Mean anomaly
41.0972°
Eccentric anomaly
41.17232°
Mean motion
3.53582 °/min
Orbital period
101.82 mins
BSTAR
0.0002074
Loading maneuver chart data...
Computing Atmospheric mass density...
Loading historical data...
Loading historical data...
Loading historical data...
Loading historical data...
Loading historical data...
Loading historical data...
Loading historical data...

Documentation

Showing up to 5 results
|